Weather History for KIYA - April, 2014

Change the Weather History Date:

Friday, April 18, 2014

  Actual Average (KARA) Record (KARA)
Temperature  
Mean Temperature 75 °F 68 °F  
Max Temperature 83 °F 80 °F 92 °F (1948)
Min Temperature 66 °F 57 °F 43 °F (1999)
Degree Days  
Heating Degree Days 0 1  
Month to date heating degree days 38  
Since 1 July heating degree days 1402  
Cooling Degree Days 10 5  
Month to date cooling degree days 66  
Year to date cooling degree days 149  
Growing Degree Days 25 (Base 50)    
Moisture  
Dew Point 63 °F    
Average Humidity 70    
Maximum Humidity 100    
Minimum Humidity 40    
Precipitation  
Precipitation 0.00 in 0.16 in 2.15 in (1973)
Month to date precipitation 2.67  
Year to date precipitation 15.85  
Sea Level Pressure  
Sea Level Pressure 30.11 in    
Wind  
Wind Speed 4 mph (North)    
Max Wind Speed 14 mph    
Max Gust Speed 17 mph    
Visibility 9 miles    
Events Rain    
T = Trace of Precipitation, MM = Missing Value Source: NWS Daily Summary

Daily Weather History Graph

Daily Weather History Graph

Search for Another Location

Airport or City:

Trip Planner

Search our weather history database for the weather conditions in past years. The results will help you decide how hot, cold, wet, or windy it might be!

Date:

Astronomy

Apr. 18, 2014 Rise Set
Actual Time 6:38 AM CDT 7:37 PM CDT
Civil Twilight 6:13 AM CDT 8:02 PM CDT
Nautical Twilight 5:44 AM CDT 8:31 PM CDT
Astronomical Twilight 5:14 AM CDT 9:01 PM CDT
Moon 11:13 PM CDT (4/18) 9:10 AM CDT (4/18)
Length of Visible Light 13h 48m
Length of Day
12h 59m
Waning Gibbous, 87% of the Moon is Illuminated
Apr 18
Waning Gibbous
Apr 22
Last Quarter
Apr 29
New
May 6
First Quarter
May 14
Full

Hourly Weather History & Observations

Time (CDT) Temp. Heat Index Dew Point Humidity Pressure Visibility Wind Dir Wind Speed Gust Speed Precip Events Conditions
12:15 AM 68.0 °F - 68.0 °F 100% 30.13 in 10.0 mi Calm Calm - N/A   Overcast
12:35 AM 67.5 °F - 67.5 °F 100% 30.13 in 10.0 mi North 3.5 mph - N/A   Overcast
12:55 AM 67.1 °F - 67.1 °F 100% 30.13 in 10.0 mi North 3.5 mph - N/A   Overcast
1:15 AM 67.5 °F - 67.5 °F 100% 30.13 in 10.0 mi North 4.6 mph - N/A   Overcast
1:35 AM 67.3 °F - 67.3 °F 100% 30.13 in 10.0 mi North 3.5 mph - N/A   Overcast
1:55 AM 67.1 °F - 67.1 °F 100% 30.13 in 10.0 mi North 4.6 mph - N/A   Overcast
2:15 AM 67.1 °F - 67.1 °F 100% 30.12 in 10.0 mi NNW 3.5 mph - N/A   Overcast
2:35 AM - - - N/A% 30.11 in 5.0 mi North 4.6 mph - N/A   Haze
2:55 AM - - - N/A% 30.11 in 3.0 mi NNW 4.6 mph - N/A   Overcast
3:15 AM - - - N/A% 30.10 in 2.5 mi North 3.5 mph - N/A Rain Light Rain
3:35 AM - - - N/A% 30.09 in 2.5 mi North 3.5 mph - N/A   Light Drizzle
3:55 AM - - - N/A% 30.09 in 3.0 mi North 4.6 mph - N/A   Overcast
4:15 AM - - - N/A% 30.09 in 4.0 mi NNW 5.8 mph - N/A   Haze
4:35 AM - - - N/A% 30.09 in 4.0 mi NNW 3.5 mph - N/A   Haze
4:55 AM - - - N/A% 30.09 in 4.0 mi Calm Calm - N/A   Haze
5:15 AM - - - N/A% 30.09 in 7.0 mi North 3.5 mph - N/A   Overcast
5:35 AM - - - N/A% 30.10 in 7.0 mi Calm Calm - N/A   Overcast
5:55 AM - - - N/A% 30.11 in 7.0 mi Calm Calm - N/A   Overcast
6:15 AM - - - N/A% 30.11 in 7.0 mi North 3.5 mph - N/A   Overcast
6:35 AM - - - N/A% 30.12 in 7.0 mi Calm Calm - N/A   Overcast
6:55 AM - - - N/A% 30.13 in 7.0 mi Calm Calm - N/A   Overcast
7:15 AM - - - N/A% 30.13 in 5.0 mi Calm Calm - N/A   Haze
7:35 AM - - - N/A% 30.14 in 5.0 mi Calm Calm - N/A   Haze
7:55 AM - - - N/A% 30.14 in 10.0 mi North 5.8 mph - N/A   Scattered Clouds
8:15 AM 67.1 °F - 67.1 °F 100% 30.14 in 10.0 mi North 5.8 mph - N/A   Scattered Clouds
8:35 AM 68.5 °F - 66.4 °F 93% 30.13 in 10.0 mi NE 3.5 mph - N/A   Clear
8:55 AM 70.2 °F - 66.0 °F 87% 30.13 in 10.0 mi NNE 4.6 mph - N/A   Scattered Clouds
9:15 AM 72.1 °F - 66.2 °F 82% 30.13 in 10.0 mi North 6.9 mph - N/A   Scattered Clouds
9:35 AM 72.0 °F - 64.9 °F 78% 30.14 in 10.0 mi NNE 3.5 mph - N/A   Overcast
9:55 AM 72.5 °F - 64.8 °F 77% 30.13 in 10.0 mi NNW 9.2 mph - N/A   Overcast
10:15 AM 72.5 °F - 64.4 °F 76% 30.14 in 10.0 mi NNW 10.4 mph - N/A   Overcast
10:35 AM 73.2 °F - 63.3 °F 71% 30.14 in 10.0 mi North 10.4 mph - N/A   Overcast
11:15 AM 76.1 °F - 61.0 °F 59% 30.14 in 10.0 mi NNW 10.4 mph - N/A   Overcast
11:35 AM 76.8 °F - 61.7 °F 59% 30.14 in 10.0 mi North 11.5 mph - N/A   Overcast
11:55 AM 77.5 °F - 61.0 °F 57% 30.13 in 10.0 mi NNW 10.4 mph - N/A   Mostly Cloudy
12:15 PM 78.3 °F - 61.7 °F 57% 30.12 in 10.0 mi North 6.9 mph - N/A   Mostly Cloudy
12:35 PM 79.9 °F - 61.0 °F 52% 30.11 in 10.0 mi North 10.4 mph - N/A   Scattered Clouds
12:55 PM 80.1 °F 80.8 °F 59.5 °F 49% 30.11 in 10.0 mi North 9.2 mph - N/A   Scattered Clouds
1:15 PM 79.9 °F - 59.7 °F 50% 30.10 in 10.0 mi North 8.1 mph - N/A   Mostly Cloudy
1:35 PM 81.0 °F 81.5 °F 59.4 °F 48% 30.09 in 10.0 mi North 9.2 mph - N/A   Mostly Cloudy
1:55 PM 81.5 °F 82.0 °F 59.9 °F 48% 30.09 in 10.0 mi NNE 8.1 mph - N/A   Mostly Cloudy
2:15 PM 82.2 °F 82.3 °F 59.0 °F 45% 30.08 in 10.0 mi North 10.4 mph - N/A   Mostly Cloudy
2:35 PM 82.9 °F 82.6 °F 57.7 °F 42% 30.08 in 10.0 mi North 8.1 mph - N/A   Scattered Clouds
2:55 PM 82.9 °F 82.6 °F 57.9 °F 42% 30.08 in 10.0 mi North 6.9 mph - N/A   Mostly Cloudy
3:15 PM 83.5 °F 82.8 °F 57.0 °F 40% 30.07 in 10.0 mi NNE 6.9 mph - N/A   Mostly Cloudy
3:35 PM 83.3 °F 82.8 °F 57.0 °F 41% 30.06 in 10.0 mi NNE 8.1 mph - N/A   Mostly Cloudy
3:55 PM 81.9 °F 81.9 °F 58.6 °F 45% 30.06 in 10.0 mi NNE 8.1 mph - N/A   Overcast
4:15 PM 81.0 °F 81.2 °F 58.1 °F 46% 30.06 in 10.0 mi North 8.1 mph - N/A   Overcast
4:35 PM 80.6 °F 81.4 °F 60.3 °F 50% 30.07 in 10.0 mi North 13.8 mph 17.3 mph N/A   Overcast
4:55 PM 78.4 °F - 61.2 °F 55% 30.07 in 10.0 mi North 10.4 mph - N/A   Overcast
5:15 PM 79.2 °F - 60.6 °F 53% 30.07 in 10.0 mi North 13.8 mph - N/A   Overcast
5:35 PM 77.5 °F - 61.3 °F 57% 30.07 in 10.0 mi North 9.2 mph - N/A   Mostly Cloudy
5:55 PM 77.4 °F - 61.9 °F 59% 30.08 in 10.0 mi North 4.6 mph - N/A   Overcast
6:15 PM 77.9 °F - 61.5 °F 57% 30.07 in 10.0 mi North 8.1 mph - N/A   Overcast
6:35 PM 78.8 °F - 61.3 °F 55% 30.07 in 10.0 mi North 5.8 mph - N/A   Scattered Clouds
6:55 PM 78.1 °F - 61.3 °F 56% 30.06 in 10.0 mi North 8.1 mph - N/A   Scattered Clouds
7:15 PM 76.6 °F - 61.3 °F 59% 30.07 in 10.0 mi North 6.9 mph - N/A   Scattered Clouds
7:35 PM 74.1 °F - 63.1 °F 68% 30.07 in 10.0 mi North 4.6 mph - N/A   Clear
7:55 PM 74.1 °F - 62.6 °F 67% 30.08 in 10.0 mi North 3.5 mph - N/A   Clear
8:15 PM 72.1 °F - 63.7 °F 75% 30.09 in 10.0 mi NNW 3.5 mph - N/A   Clear
8:35 PM 70.2 °F - 65.1 °F 84% 30.10 in 10.0 mi North 4.6 mph - N/A   Clear
8:55 PM 70.7 °F - 64.8 °F 81% 30.11 in 10.0 mi Calm Calm - N/A   Clear
9:15 PM 72.1 °F - 64.0 °F 76% 30.12 in 10.0 mi North 6.9 mph - N/A   Scattered Clouds
9:35 PM 71.2 °F - 63.5 °F 76% 30.13 in 10.0 mi North 4.6 mph - N/A   Scattered Clouds
9:55 PM 68.9 °F - 64.4 °F 86% 30.13 in 10.0 mi North 3.5 mph - N/A   Clear
10:15 PM 68.2 °F - 65.1 °F 90% 30.13 in 10.0 mi Calm Calm - N/A   Clear
10:35 PM 68.9 °F - 65.7 °F 89% 30.13 in 10.0 mi Calm Calm - N/A   Clear
10:55 PM 67.3 °F - 65.5 °F 94% 30.13 in 10.0 mi North 3.5 mph - N/A   Clear
11:15 PM 66.6 °F - 66.6 °F 100% 30.13 in 10.0 mi Calm Calm - N/A   Clear
11:35 PM - - - N/A% 30.13 in 10.0 mi Calm Calm - N/A   Clear
11:55 PM - - - N/A% 30.13 in 10.0 mi Calm Calm - N/A   Clear